Location: Bats
(43.6587°N, 0.4584°W)
Time: 05:55:03
(UTC+00:00)

NOSS 3-4 (C) - Pass Details

Date: 12 January 2026
Orbit: 773 x 1438 km, 63.4° (Epoch: 26 December)

Event Time Altitude Azimuth Distance (km) Brightness Sun altitude
Rises 19:20:16 0° 235° (SW) 3,241 7.1 -27.1°
Reaches altitude 10° 19:22:41 10° 241° (WSW) 2,334 6.3 -27.6°
Maximum altitude 19:27:46 46° 315° (NW) 1,093 3.9 -28.5°
Enters shadow 19:29:03 39° 352° (N) 1,231 4.0 -28.7°
